Paris Le Bourget, France

1:38 AM CEST on July 26, 2016 (GMT +0200)
Le Bourget

Weather History for LFPB - August, 2013

Change the Weather History Date:

Saturday, August 17, 2013

  Actual Average Record
Temperature  
Mean Temperature 70 °F -  
Max Temperature 80 °F 72 °F 89 °F (2002)
Min Temperature 60 °F 54 °F 53 °F (1998)
Cooling Degree Days 5    
Growing Degree Days 20 (Base 50)    
Moisture  
Dew Point 57 °F    
Average Humidity 64    
Maximum Humidity 88    
Minimum Humidity 42    
Precipitation  
Precipitation 0.00 in 0.07 in - ()
Sea Level Pressure  
Sea Level Pressure 30.02 in    
Wind  
Wind Speed 6 mph ()    
Max Wind Speed 15 mph    
Max Gust Speed -    
Visibility 6.2 miles    
Events Rain    
Averages and records for this station are not official NWS values.
T = Trace of Precipitation, MM = Missing Value Source: Averaged Metar Reports

Daily Weather History Graph

Daily Weather History Graph

Search for Another Location

Airport or City:

Trip Planner

Search our weather history database for the weather conditions in past years. The results will help you decide how hot, cold, wet, or windy it might be!

Date:

Astronomy

Aug. 17, 2013 Rise Set
Actual Time 6:45 AM CEST 9:02 PM CEST
Civil Twilight 6:10 AM CEST 9:36 PM CEST
Nautical Twilight 5:27 AM CEST 10:19 PM CEST
Astronomical Twilight 4:37 AM CEST 11:09 PM CEST
Moon 6:12 PM CEST (8/17) 2:22 AM CEST (8/17)
Length of Visible Light 15h 25m
Length of Day
14h 16m
Waxing Gibbous, 82% of the Moon is Illuminated
Aug 17
Waxing Gibbous
Aug 21
Full
Aug 28
Last Quarter
Sep 5
New
Sep 12
First Quarter

Hourly Weather History & Observations

Time (CEST) Temp. Heat Index Dew Point Humidity Pressure Visibility Wind Dir Wind Speed Gust Speed Precip Events Conditions
12:00 AM 69.8 °F - 55.4 °F 60% 30.06 in 6.2 mi West 4.6 mph - N/A   Unknown
12:30 AM 68.0 °F - 53.6 °F 60% 30.06 in 6.2 mi Variable 3.5 mph - N/A   Unknown
1:00 AM 68.0 °F - 55.4 °F 64% 30.06 in 6.2 mi WNW 3.5 mph - N/A   Unknown
1:30 AM 68.0 °F - 55.4 °F 64% 30.06 in 6.2 mi WNW 3.5 mph - N/A   Unknown
2:00 AM 66.2 °F - 57.2 °F 73% 30.06 in 6.2 mi West 4.6 mph - N/A   Overcast
2:30 AM 66.2 °F - 57.2 °F 73% 30.06 in 6.2 mi NW 3.5 mph - N/A   Mostly Cloudy
3:00 AM 64.4 °F - 57.2 °F 77% 30.06 in 6.2 mi NNW 2.3 mph - N/A   Unknown
3:30 AM 64.4 °F - 57.2 °F 77% 30.06 in 6.2 mi Calm Calm - N/A   Unknown
4:00 AM 62.6 °F - 57.2 °F 82% 30.06 in 6.2 mi Calm Calm - N/A   Unknown
4:30 AM 62.6 °F - 57.2 °F 82% 30.06 in 6.2 mi WNW 1.2 mph - N/A   Unknown
5:00 AM 62.6 °F - 57.2 °F 82% 30.04 in 6.2 mi Calm Calm - N/A   Unknown
5:30 AM 60.8 °F - 57.2 °F 88% 30.06 in 6.2 mi NNW 2.3 mph - N/A   Unknown
6:00 AM 60.8 °F - 57.2 °F 88% 30.06 in 6.2 mi NNW 3.5 mph - N/A   Unknown
6:30 AM 60.8 °F - 57.2 °F 88% 30.06 in 6.2 mi West 2.3 mph - N/A   Unknown
7:00 AM 60.8 °F - 57.2 °F 88% 30.06 in 6.2 mi West 2.3 mph - N/A   Unknown
7:30 AM 60.8 °F - 57.2 °F 88% 30.06 in 6.2 mi Calm Calm - N/A   Mostly Cloudy
8:00 AM 62.6 °F - 59.0 °F 88% 30.06 in 6.2 mi Variable 1.2 mph - N/A   Overcast
8:30 AM 64.4 °F - 59.0 °F 83% 30.06 in 6.2 mi West 3.5 mph - N/A   Overcast
9:00 AM 64.4 °F - 60.8 °F 88% 30.06 in 6.2 mi WSW 3.5 mph - N/A   Overcast
9:30 AM 66.2 °F - 60.8 °F 83% 30.06 in 6.2 mi SW 4.6 mph - N/A   Overcast
10:00 AM 66.2 °F - 60.8 °F 83% 30.06 in 6.2 mi SW 3.5 mph - N/A   Overcast
10:30 AM 68.0 °F - 60.8 °F 78% 30.06 in 6.2 mi South 5.8 mph - N/A   Overcast
11:00 AM 69.8 °F - 60.8 °F 73% 30.06 in 6.2 mi SSW 9.2 mph - N/A   Overcast
11:30 AM 69.8 °F - 60.8 °F 73% 30.06 in 6.2 mi SW 11.5 mph - N/A   Overcast
12:00 PM 71.6 °F - 59.0 °F 64% 30.04 in 6.2 mi SW 11.5 mph - N/A   Overcast
12:30 PM 73.4 °F - 59.0 °F 61% 30.04 in 6.2 mi SW 10.4 mph - N/A   Mostly Cloudy
1:00 PM 73.4 °F - 59.0 °F 61% 30.04 in 6.2 mi SW 12.7 mph - N/A   Mostly Cloudy
1:30 PM 77.0 °F - 60.8 °F 57% 30.04 in 6.2 mi SW 11.5 mph - N/A   Mostly Cloudy
2:00 PM 77.0 °F - 59.0 °F 54% 30.04 in 6.2 mi SW 13.8 mph - N/A   Mostly Cloudy
2:30 PM 77.0 °F - 55.4 °F 47% 30.01 in 6.2 mi WSW 13.8 mph - N/A   Mostly Cloudy
3:00 PM 78.8 °F - 57.2 °F 47% 30.01 in 6.2 mi WSW 13.8 mph - N/A   Partly Cloudy
3:30 PM 78.8 °F - 55.4 °F 44% 29.98 in 6.2 mi SW 13.8 mph - N/A   Partly Cloudy
4:00 PM 80.6 °F 80.5 °F 55.4 °F 42% 29.98 in 6.2 mi SW 12.7 mph - N/A   Unknown
4:30 PM 78.8 °F - 55.4 °F 44% 29.98 in 6.2 mi WSW 15.0 mph - N/A   Unknown
5:00 PM 78.8 °F - 53.6 °F 42% 29.98 in 6.2 mi WSW 15.0 mph - N/A   Unknown
5:30 PM 80.6 °F 80.5 °F 55.4 °F 42% 29.95 in 6.2 mi SW 12.7 mph - N/A   Unknown
6:00 PM 78.8 °F - 55.4 °F 44% 29.95 in 6.2 mi SW 15.0 mph - N/A   Unknown
6:30 PM 78.8 °F - 53.6 °F 42% 29.95 in 6.2 mi WSW 15.0 mph - N/A   Unknown
7:00 PM 78.8 °F - 53.6 °F 42% 29.95 in 6.2 mi WSW 12.7 mph - N/A   Unknown
7:30 PM 78.8 °F - 55.4 °F 44% 29.95 in 6.2 mi WSW 11.5 mph - N/A   Unknown
8:00 PM 78.8 °F - 55.4 °F 44% 29.95 in 6.2 mi WSW 12.7 mph - N/A   Unknown
8:30 PM 77.0 °F - 53.6 °F 44% 29.95 in 6.2 mi WSW 12.7 mph - N/A   Unknown
9:00 PM 77.0 °F - 55.4 °F 47% 29.95 in 6.2 mi SW 8.1 mph - N/A   Unknown
9:30 PM 75.2 °F - 55.4 °F 50% 29.95 in 6.2 mi SW 8.1 mph - N/A   Unknown
10:00 PM 75.2 °F - 55.4 °F 50% 29.95 in 6.2 mi SW 9.2 mph - N/A   Unknown
10:30 PM 75.2 °F - 55.4 °F 50% 29.95 in 6.2 mi SW 10.4 mph - N/A   Unknown
11:00 PM 75.2 °F - 55.4 °F 50% 29.95 in 6.2 mi WSW 9.2 mph - N/A   Unknown
11:30 PM 73.4 °F - 59.0 °F 61% 29.95 in 6.2 mi West 8.1 mph - N/A Rain Light Rain